星链-1513 (STARLINK-1513 )

导读

STARLINK-1513是美国太空探索技术公司(SpaceX)发射的星链卫星,于2020年6月13日发射入轨,属于Starlink星座组网卫星中的一员。星链星座旨在构建全球卫星互联网,为全球多地提供高速宽带互联网服务,该卫星的发射推进了星链系统全球覆盖的进程。

基本信息
目录编号:
45786
目录名称:
STARLINK-1513
国际标识:
2020-038BJ
轨道中心:
EARTH
卫星名称:
星链-1513
卫星全名:
星链-1513 (STARLINK-1513 )
卫星状态:
在轨 (已飞行2274 天)
发射日期:
2020-06-13 UTC
国别 :
美国 (US)
星等 :
--
轨道信息
数据来源 国际轨道数据
星历时间: 2026-09-03T04:04:35+0800
1天前
查看轨道信息
半长轴: 6840.189km
偏心率: 0.0001448
轨道倾角: 53.157°
近地点辐角 176.379°
升交点赤经 86.322°
平近点角 183.722°
近地点: 461.061km
远地点: 463.043km
周期: 93.834分钟
每日圈数: 15.346194
详细信息
固有亮度:
5
最大亮度:
2.5
卫星平台:
Starlink V1.0
覆盖范围:
全球
运营商:
太空探索技术公司
运营商所在国:
美国
制造商(研发单位):
太空探索技术公司
制造商所在国:
美国
使用方式:
暂无
卫星简介
星链(Starlink)计划是由太空探索技术公司(SpaceX)提出的一个巨型低轨卫星互联网星座项目,计划在2019年至2024年间在太空搭建由约1.2万颗卫星组成的“星链”网络,其中1584颗将部署在地球上空550千米处的近地轨道,并从2020年开始工作。该卫星仍在工作。
2D轨道图
3D轨道图
轨道高度分析图
轨道倾角分析图
轨道综合分析图
查看轨道综合分析图
交会数据列表
事件ID 空间交会对象 最接近时刻(TCA) 交会距离 交会风险概率(CRP) 交会风险指数(CRI) 操作
CDM_260904-112604-578606-852621
2026-09-04T
11:26:34+0000
1.297 km
极远距离
6.530934E-6 低风险 0.51
CDM_260904-052404-578606-549621
2026-09-04T
05:24:16+0000
1.621 km
极远距离
3.429653E-6 低风险 0.46
CDM_260905-083204-578606-468121
2026-09-05T
08:32:49+0000
1.577 km
极远距离
3.356641E-6 低风险 0.46
CDM_260903-165104-578606-477921
2026-09-03T
16:51:12+0000
1.672 km
极远距离
2.397212E-6 低风险 0.43
CDM_260903-093304-578605-804221
2026-09-03T
09:33:55+0000
2.085 km
极远距离
2.052987E-6 低风险 0.41
CDM_260903-180904-578605-804222
2026-09-03T
18:09:45+0000
2.173 km
极远距离
1.869059E-6 低风险 0.4
CDM_260903-040304-578605-854021
2026-09-03T
04:03:21+0000
2.253 km
极远距离
1.808314E-6 低风险 0.4
CDM_260903-062504-578605-248323
2026-09-03T
06:25:30+0000
2.241 km
极远距离
1.781528E-6 低风险 0.4
CDM_260903-094104-578605-810821
2026-09-03T
09:41:53+0000
1.817 km
极远距离
1.676914E-6 低风险 0.39
CDM_260829-125704-578606-013221
2026-08-29T
12:57:28+0000
2.467 km
极远距离
1.598902E-6 低风险 0.39